Location: Newark
(41.0400°S, 62.7845°W)
Time: 00:07:11
(UTC+00:00)

Vanguard 2 - Pass Details

Date: 05 December 2021
Orbit: 554 x 2935 km, 32.9° (Epoch: 27 January)

Event Time Altitude Azimuth Distance (km) Brightness Sun altitude
Rises 00:43:15 0° 356° (N) 6,233 11.8 -11.7°
Reaches altitude 10° 00:49:51 10° 14° (NNE) 5,541 11.4 -12.5°
Maximum altitude 00:58:35 16° 45° (NE) 5,230 11.1 -13.7°
Drops below altitude 10° 01:07:28 10° 76° (ENE) 5,713 11.5 -14.8°
Sets 01:14:19 0° 94° (E) 6,525 11.9 -15.6°
